Year,Month,Day,Hour,Minute,Value (Times are PST for temperature in C)
2010,08,06,00,00,20.80
2010,08,06,00,01,20.80
2010,08,06,00,02,20.80
2010,08,06,00,03,20.80
2010,08,06,00,04,20.80
2010,08,06,00,05,20.70
2010,08,06,00,06,20.70
2010,08,06,00,07,20.70
2010,08,06,00,08,20.70
2010,08,06,00,09,20.70
2010,08,06,00,10,20.70
2010,08,06,00,11,20.80
2010,08,06,00,12,20.80
2010,08,06,00,13,20.80
2010,08,06,00,14,20.70
2010,08,06,00,15,20.70
2010,08,06,00,16,20.70
2010,08,06,00,17,20.70
2010,08,06,00,18,20.70
2010,08,06,00,19,20.70
2010,08,06,00,20,20.60
2010,08,06,00,21,20.50
2010,08,06,00,22,20.30
2010,08,06,00,23,20.20
2010,08,06,00,24,20.00
2010,08,06,00,25,19.90
2010,08,06,00,26,19.70
2010,08,06,00,27,19.60
2010,08,06,00,28,19.50
2010,08,06,00,29,19.40
2010,08,06,00,30,19.20
2010,08,06,00,31,19.10
2010,08,06,00,32,19.00
2010,08,06,00,33,18.90
2010,08,06,00,34,18.80
2010,08,06,00,35,18.70
2010,08,06,00,36,18.60
2010,08,06,00,37,18.60
2010,08,06,00,38,18.50
2010,08,06,00,39,18.50
2010,08,06,00,40,18.50
2010,08,06,00,41,18.40
2010,08,06,00,42,18.40
2010,08,06,00,43,18.40
2010,08,06,00,44,18.40
2010,08,06,00,45,18.40
2010,08,06,00,46,18.40
2010,08,06,00,47,18.30
2010,08,06,00,48,18.30
2010,08,06,00,49,18.30
2010,08,06,00,50,18.30
2010,08,06,00,51,18.20
2010,08,06,00,52,18.20
2010,08,06,00,53,18.20
2010,08,06,00,54,18.20
2010,08,06,00,55,18.20
2010,08,06,00,56,18.20
2010,08,06,00,57,18.20
2010,08,06,00,58,18.20
2010,08,06,00,59,18.20
2010,08,06,01,00,18.10
2010,08,06,01,01,18.10
2010,08,06,01,02,18.10
2010,08,06,01,03,18.10
2010,08,06,01,04,18.10
2010,08,06,01,05,18.00
2010,08,06,01,06,17.90
2010,08,06,01,07,17.90
2010,08,06,01,08,17.90
2010,08,06,01,09,17.90
2010,08,06,01,10,17.90
2010,08,06,01,11,17.90
2010,08,06,01,12,17.80
2010,08,06,01,13,17.80
2010,08,06,01,14,17.80
2010,08,06,01,15,17.70
2010,08,06,01,16,17.70
2010,08,06,01,17,17.70
2010,08,06,01,18,17.70
2010,08,06,01,19,17.70
2010,08,06,01,20,17.70
2010,08,06,01,21,17.70
2010,08,06,01,22,17.70
2010,08,06,01,23,17.70
2010,08,06,01,24,17.70
2010,08,06,01,25,17.70
2010,08,06,01,26,17.60
2010,08,06,01,27,17.60
2010,08,06,01,28,17.60
2010,08,06,01,29,17.60
2010,08,06,01,30,17.60
2010,08,06,01,31,17.60
2010,08,06,01,32,17.60
2010,08,06,01,33,17.60
2010,08,06,01,34,17.60
2010,08,06,01,35,17.50
2010,08,06,01,36,17.50
2010,08,06,01,37,17.50
2010,08,06,01,38,17.50
2010,08,06,01,39,17.40
2010,08,06,01,40,17.40
2010,08,06,01,41,17.40
2010,08,06,01,42,17.40
2010,08,06,01,43,17.40
2010,08,06,01,44,17.40
2010,08,06,01,45,17.40
2010,08,06,01,46,17.40
2010,08,06,01,47,17.30
2010,08,06,01,48,17.30
2010,08,06,01,49,17.30
2010,08,06,01,50,17.30
2010,08,06,01,51,17.30
2010,08,06,01,52,17.30
2010,08,06,01,53,17.30
2010,08,06,01,54,17.30
2010,08,06,01,55,17.30
2010,08,06,01,56,17.30
2010,08,06,01,57,17.30
2010,08,06,01,58,17.30
2010,08,06,01,59,17.30
2010,08,06,02,00,17.30
2010,08,06,02,01,17.20
2010,08,06,02,02,17.20
2010,08,06,02,03,17.20
2010,08,06,02,04,17.20
2010,08,06,02,05,17.20
2010,08,06,02,06,17.20
2010,08,06,02,07,17.10
2010,08,06,02,08,17.10
2010,08,06,02,09,17.10
2010,08,06,02,10,17.00
2010,08,06,02,11,17.00
2010,08,06,02,12,17.00
2010,08,06,02,13,16.90
2010,08,06,02,14,16.90
2010,08,06,02,15,16.90
2010,08,06,02,16,16.80
2010,08,06,02,17,16.80
2010,08,06,02,18,16.80
2010,08,06,02,19,16.80
2010,08,06,02,20,16.70
2010,08,06,02,21,16.70
2010,08,06,02,22,16.70
2010,08,06,02,23,16.70
2010,08,06,02,24,16.70
2010,08,06,02,25,16.70
2010,08,06,02,26,16.70
2010,08,06,02,27,16.70
2010,08,06,02,28,16.70
2010,08,06,02,29,16.60
2010,08,06,02,30,16.60
2010,08,06,02,31,16.50
2010,08,06,02,32,16.40
2010,08,06,02,33,16.40
2010,08,06,02,34,16.40
2010,08,06,02,35,16.40
2010,08,06,02,36,16.30
2010,08,06,02,37,16.30
2010,08,06,02,38,16.30
2010,08,06,02,39,16.30
2010,08,06,02,40,16.20
2010,08,06,02,41,16.20
2010,08,06,02,42,16.20
2010,08,06,02,43,16.20
2010,08,06,02,44,16.20
2010,08,06,02,45,16.30
2010,08,06,02,46,16.30
2010,08,06,02,47,16.30
2010,08,06,02,48,16.30
2010,08,06,02,49,16.30
2010,08,06,02,50,16.30
2010,08,06,02,51,16.30
2010,08,06,02,52,16.30
2010,08,06,02,53,16.30
2010,08,06,02,54,16.30
2010,08,06,02,55,16.20
2010,08,06,02,56,16.20
2010,08,06,02,57,16.20
2010,08,06,02,58,16.20
2010,08,06,02,59,16.30
2010,08,06,03,00,16.30
2010,08,06,03,01,16.30
2010,08,06,03,02,16.30
2010,08,06,03,03,16.30
2010,08,06,03,04,16.30
2010,08,06,03,05,16.30
2010,08,06,03,06,16.30
2010,08,06,03,07,16.30
2010,08,06,03,08,16.30
2010,08,06,03,09,16.30
2010,08,06,03,10,16.30
2010,08,06,03,11,16.30
2010,08,06,03,12,16.30
2010,08,06,03,13,16.30
2010,08,06,03,14,16.30
2010,08,06,03,15,16.30
2010,08,06,03,16,16.20
2010,08,06,03,17,16.20
2010,08,06,03,18,16.20
2010,08,06,03,19,16.20
2010,08,06,03,20,16.20
2010,08,06,03,21,16.20
2010,08,06,03,22,16.20
2010,08,06,03,23,16.20
2010,08,06,03,24,16.20
2010,08,06,03,25,16.20
2010,08,06,03,26,16.10
2010,08,06,03,27,16.10
2010,08,06,03,28,16.10
2010,08,06,03,29,16.10
2010,08,06,03,30,16.10
2010,08,06,03,31,16.10
2010,08,06,03,32,16.10
2010,08,06,03,33,16.10
2010,08,06,03,34,16.10
2010,08,06,03,35,16.10
2010,08,06,03,36,16.10
2010,08,06,03,37,16.10
2010,08,06,03,38,16.10
2010,08,06,03,39,16.10
2010,08,06,03,40,16.10
2010,08,06,03,41,16.10
2010,08,06,03,42,16.10
2010,08,06,03,43,16.10
2010,08,06,03,44,16.10
2010,08,06,03,45,16.10
2010,08,06,03,46,16.10
2010,08,06,03,47,16.00
2010,08,06,03,48,15.90
2010,08,06,03,49,15.90
2010,08,06,03,50,15.90
2010,08,06,03,51,15.90
2010,08,06,03,52,15.90
2010,08,06,03,53,15.90
2010,08,06,03,54,15.80
2010,08,06,03,55,15.80
2010,08,06,03,56,15.80
2010,08,06,03,57,15.80
2010,08,06,03,58,15.80
2010,08,06,03,59,15.80
2010,08,06,04,00,15.90
2010,08,06,04,01,15.90
2010,08,06,04,02,15.90
2010,08,06,04,03,15.90
2010,08,06,04,04,15.90
2010,08,06,04,05,15.90
2010,08,06,04,06,15.90
2010,08,06,04,07,15.90
2010,08,06,04,08,15.90
2010,08,06,04,09,15.90
2010,08,06,04,10,15.90
2010,08,06,04,11,15.90
2010,08,06,04,12,15.90
2010,08,06,04,13,15.90
2010,08,06,04,14,15.90
2010,08,06,04,15,15.80
2010,08,06,04,16,15.80
2010,08,06,04,17,15.80
2010,08,06,04,18,15.80
2010,08,06,04,19,15.80
2010,08,06,04,20,15.80
2010,08,06,04,21,15.80
2010,08,06,04,22,15.80
2010,08,06,04,23,15.80
2010,08,06,04,24,15.80
2010,08,06,04,25,15.80
2010,08,06,04,26,15.70
2010,08,06,04,27,15.70
2010,08,06,04,28,15.70
2010,08,06,04,29,15.70
2010,08,06,04,30,15.60
2010,08,06,04,31,15.60
2010,08,06,04,32,15.60
2010,08,06,04,33,15.60
2010,08,06,04,34,15.50
2010,08,06,04,35,15.50
2010,08,06,04,36,15.50
2010,08,06,04,37,15.50
2010,08,06,04,38,15.50
2010,08,06,04,39,15.40
2010,08,06,04,40,15.40
2010,08,06,04,41,15.40
2010,08,06,04,42,15.40
2010,08,06,04,43,15.40
2010,08,06,04,44,15.40
2010,08,06,04,45,15.40
2010,08,06,04,46,15.40
2010,08,06,04,47,15.30
2010,08,06,04,48,15.30
2010,08,06,04,49,15.30
2010,08,06,04,50,15.30
2010,08,06,04,51,15.30
2010,08,06,04,52,15.30
2010,08,06,04,53,15.30
2010,08,06,04,54,15.30
2010,08,06,04,55,15.30
2010,08,06,04,56,15.30
2010,08,06,04,57,15.30
2010,08,06,04,58,15.30
2010,08,06,04,59,15.30
2010,08,06,05,00,15.30
2010,08,06,05,01,15.30
2010,08,06,05,02,15.30
2010,08,06,05,03,15.10
2010,08,06,05,04,15.10
2010,08,06,05,05,15.10
2010,08,06,05,06,15.10
2010,08,06,05,07,15.00
2010,08,06,05,08,15.00
2010,08,06,05,09,15.00
2010,08,06,05,10,15.00
2010,08,06,05,11,14.90
2010,08,06,05,12,14.90
2010,08,06,05,13,14.90
2010,08,06,05,14,14.90
2010,08,06,05,15,14.80
2010,08,06,05,16,14.80
2010,08,06,05,17,14.80
2010,08,06,05,18,14.80
2010,08,06,05,19,14.80
2010,08,06,05,20,14.80
2010,08,06,05,21,14.80
2010,08,06,05,22,14.80
2010,08,06,05,23,14.80
2010,08,06,05,24,14.80
2010,08,06,05,25,14.70
2010,08,06,05,26,14.70
2010,08,06,05,27,14.70
2010,08,06,05,28,14.70
2010,08,06,05,29,14.70
2010,08,06,05,30,14.70
2010,08,06,05,31,14.70
2010,08,06,05,32,14.70
2010,08,06,05,33,14.70
2010,08,06,05,34,14.70
2010,08,06,05,35,14.70
2010,08,06,05,36,14.70
2010,08,06,05,37,14.70
2010,08,06,05,38,14.70
2010,08,06,05,39,14.70
2010,08,06,05,40,14.70
2010,08,06,05,41,14.70
2010,08,06,05,42,14.70
2010,08,06,05,43,14.70
2010,08,06,05,44,14.60
2010,08,06,05,45,14.60
2010,08,06,05,46,14.60
2010,08,06,05,47,14.60
2010,08,06,05,48,14.60
2010,08,06,05,49,14.60
2010,08,06,05,50,14.60
2010,08,06,05,51,14.60
2010,08,06,05,52,14.60
2010,08,06,05,53,14.50
2010,08,06,05,54,14.50
2010,08,06,05,55,14.50
2010,08,06,05,56,14.50
2010,08,06,05,57,14.50
2010,08,06,05,58,14.50
2010,08,06,05,59,14.50
2010,08,06,06,00,14.50
2010,08,06,06,01,14.40
2010,08,06,06,02,14.40
2010,08,06,06,03,14.40
2010,08,06,06,04,14.40
2010,08,06,06,05,14.40
2010,08,06,06,06,14.40
2010,08,06,06,07,14.50
2010,08,06,06,08,14.50
2010,08,06,06,09,14.50
2010,08,06,06,10,14.50
2010,08,06,06,11,14.50
2010,08,06,06,12,14.50
2010,08,06,06,13,14.50
2010,08,06,06,14,14.50
2010,08,06,06,15,14.60
2010,08,06,06,16,14.60
2010,08,06,06,17,14.60
2010,08,06,06,18,14.60
2010,08,06,06,19,14.60
2010,08,06,06,20,14.70
2010,08,06,06,21,14.70
2010,08,06,06,22,14.70
2010,08,06,06,23,14.70
2010,08,06,06,24,14.70
2010,08,06,06,25,14.70
2010,08,06,06,26,14.70
2010,08,06,06,27,14.70
2010,08,06,06,28,14.70
2010,08,06,06,29,14.70
2010,08,06,06,30,14.70
2010,08,06,06,31,14.70
2010,08,06,06,32,14.70
2010,08,06,06,33,14.70
2010,08,06,06,34,14.70
2010,08,06,06,35,14.70
2010,08,06,06,36,14.70
2010,08,06,06,37,14.80
2010,08,06,06,38,14.80
2010,08,06,06,39,14.80
2010,08,06,06,40,14.80
2010,08,06,06,41,14.80
2010,08,06,06,42,14.80
2010,08,06,06,43,14.80
2010,08,06,06,44,14.80
2010,08,06,06,45,14.80
2010,08,06,06,46,14.80
2010,08,06,06,47,14.80
2010,08,06,06,48,14.80
2010,08,06,06,49,14.80
2010,08,06,06,50,14.80
2010,08,06,06,51,14.80
2010,08,06,06,52,14.80
2010,08,06,06,53,14.80
2010,08,06,06,54,14.80
2010,08,06,06,55,14.80
2010,08,06,06,56,14.80
2010,08,06,06,57,14.90
2010,08,06,06,58,14.90
2010,08,06,06,59,14.90
2010,08,06,07,00,14.90
2010,08,06,07,01,15.00
2010,08,06,07,02,15.00
2010,08,06,07,03,15.00
2010,08,06,07,04,15.00
2010,08,06,07,05,15.10
2010,08,06,07,06,15.10
2010,08,06,07,07,15.10
2010,08,06,07,08,15.10
2010,08,06,07,09,15.20
2010,08,06,07,10,15.20
2010,08,06,07,11,15.20
2010,08,06,07,12,15.20
2010,08,06,07,13,15.30
2010,08,06,07,14,15.30
2010,08,06,07,15,15.30
2010,08,06,07,16,15.30
2010,08,06,07,17,15.30
2010,08,06,07,18,15.40
2010,08,06,07,19,15.40
2010,08,06,07,20,15.40
2010,08,06,07,21,15.50
2010,08,06,07,22,15.50
2010,08,06,07,23,15.60
2010,08,06,07,24,15.60
2010,08,06,07,25,15.60
2010,08,06,07,26,15.70
2010,08,06,07,27,15.70
2010,08,06,07,28,15.80
2010,08,06,07,29,15.80
2010,08,06,07,30,15.80
2010,08,06,07,31,15.80
2010,08,06,07,32,15.80
2010,08,06,07,33,15.80
2010,08,06,07,34,15.80
2010,08,06,07,35,15.80
2010,08,06,07,36,15.80
2010,08,06,07,37,15.80
2010,08,06,07,38,15.80
2010,08,06,07,39,15.80
2010,08,06,07,40,15.80
2010,08,06,07,41,15.80
2010,08,06,07,42,15.80
2010,08,06,07,43,15.80
2010,08,06,07,44,15.80
2010,08,06,07,45,15.80
2010,08,06,07,46,15.80
2010,08,06,07,47,15.80
2010,08,06,07,48,15.80
2010,08,06,07,49,15.80
2010,08,06,07,50,15.80
2010,08,06,07,51,15.80
2010,08,06,07,52,15.90
2010,08,06,07,53,15.90
2010,08,06,07,54,15.90
2010,08,06,07,55,16.00
2010,08,06,07,56,16.10
2010,08,06,07,57,16.10
2010,08,06,07,58,16.10
2010,08,06,07,59,16.10
2010,08,06,08,00,16.10
2010,08,06,08,01,16.10
2010,08,06,08,02,16.30
2010,08,06,08,03,16.40
2010,08,06,08,04,16.40
2010,08,06,08,05,16.40
2010,08,06,08,06,16.50
2010,08,06,08,07,16.60
2010,08,06,08,08,16.60
2010,08,06,08,09,16.70
2010,08,06,08,10,16.70
2010,08,06,08,11,16.70
2010,08,06,08,12,16.80
2010,08,06,08,13,16.80
2010,08,06,08,14,16.90
2010,08,06,08,15,16.90
2010,08,06,08,16,17.00
2010,08,06,08,17,17.00
2010,08,06,08,18,17.00
2010,08,06,08,19,17.00
2010,08,06,08,20,17.10
2010,08,06,08,21,17.10
2010,08,06,08,22,17.10
2010,08,06,08,23,17.20
2010,08,06,08,24,17.30
2010,08,06,08,25,17.30
2010,08,06,08,26,17.30
2010,08,06,08,27,17.30
2010,08,06,08,28,17.30
2010,08,06,08,29,17.30
2010,08,06,08,30,17.30
2010,08,06,08,31,17.30
2010,08,06,08,32,17.30
2010,08,06,08,33,17.30
2010,08,06,08,34,17.30
2010,08,06,08,35,17.40
2010,08,06,08,36,17.50
2010,08,06,08,37,17.50
2010,08,06,08,38,17.60
2010,08,06,08,39,17.70
2010,08,06,08,40,17.80
2010,08,06,08,41,17.90
2010,08,06,08,42,17.90
2010,08,06,08,43,17.90
2010,08,06,08,44,17.90
2010,08,06,08,45,18.00
2010,08,06,08,46,18.10
2010,08,06,08,47,18.10
2010,08,06,08,48,18.20
2010,08,06,08,49,18.20
2010,08,06,08,50,18.20
2010,08,06,08,51,18.20
2010,08,06,08,52,18.20
2010,08,06,08,53,18.20
2010,08,06,08,54,18.20
2010,08,06,08,55,18.20
2010,08,06,08,56,18.30
2010,08,06,08,57,18.30
2010,08,06,08,58,18.30
2010,08,06,08,59,18.40
2010,08,06,09,00,18.40
2010,08,06,09,01,18.40
2010,08,06,09,02,18.30
2010,08,06,09,03,18.30
2010,08,06,09,04,18.30
2010,08,06,09,05,18.40
2010,08,06,09,06,18.40
2010,08,06,09,07,18.40
2010,08,06,09,08,18.50
2010,08,06,09,09,18.50
2010,08,06,09,10,18.60
2010,08,06,09,11,18.60
2010,08,06,09,12,18.70
2010,08,06,09,13,18.70
2010,08,06,09,14,18.80
2010,08,06,09,15,18.70
2010,08,06,09,16,18.70
2010,08,06,09,17,18.70
2010,08,06,09,18,18.70
2010,08,06,09,19,18.70
2010,08,06,09,20,18.80
2010,08,06,09,21,18.80
2010,08,06,09,22,18.70
2010,08,06,09,23,18.70
2010,08,06,09,24,18.60
2010,08,06,09,25,18.60
2010,08,06,09,26,18.60
2010,08,06,09,27,18.60
2010,08,06,09,28,18.60
2010,08,06,09,29,18.50
2010,08,06,09,30,18.50
2010,08,06,09,31,18.50
2010,08,06,09,32,18.50
2010,08,06,09,33,18.50
2010,08,06,09,34,18.60
2010,08,06,09,35,18.70
2010,08,06,09,36,18.70
2010,08,06,09,37,18.70
2010,08,06,09,38,18.80
2010,08,06,09,39,18.80
2010,08,06,09,40,18.80
2010,08,06,09,41,18.90
2010,08,06,09,42,18.90
2010,08,06,09,43,18.90
2010,08,06,09,44,18.90
2010,08,06,09,45,18.90
2010,08,06,09,46,19.00
2010,08,06,09,47,19.10
2010,08,06,09,48,19.00
2010,08,06,09,49,18.90
2010,08,06,09,50,18.90
2010,08,06,09,51,18.90
2010,08,06,09,52,18.90
2010,08,06,09,53,18.90
2010,08,06,09,54,18.90
2010,08,06,09,55,18.70
2010,08,06,09,56,18.60
2010,08,06,09,57,18.50
2010,08,06,09,58,18.40
2010,08,06,09,59,18.50
2010,08,06,10,00,18.60
2010,08,06,10,01,18.70
2010,08,06,10,02,18.90
2010,08,06,10,03,19.00
2010,08,06,10,04,19.10
2010,08,06,10,05,19.20
2010,08,06,10,06,19.30
2010,08,06,10,07,19.30
2010,08,06,10,08,19.30
2010,08,06,10,09,19.30
2010,08,06,10,10,19.20
2010,08,06,10,11,19.20
2010,08,06,10,12,19.20
2010,08,06,10,13,19.30
2010,08,06,10,14,19.30
2010,08,06,10,15,19.30
2010,08,06,10,16,19.30
2010,08,06,10,17,19.30
2010,08,06,10,18,19.30
2010,08,06,10,19,19.40
2010,08,06,10,20,19.40
2010,08,06,10,21,19.50
2010,08,06,10,22,19.60
2010,08,06,10,23,19.60
2010,08,06,10,24,19.60
2010,08,06,10,25,19.70
2010,08,06,10,26,19.70
2010,08,06,10,27,19.60
2010,08,06,10,28,19.60
2010,08,06,10,29,19.60
2010,08,06,10,30,19.60
2010,08,06,10,31,19.70
2010,08,06,10,32,19.80
2010,08,06,10,33,19.90
2010,08,06,10,34,19.90
2010,08,06,10,35,19.90
2010,08,06,10,36,19.90
2010,08,06,10,37,20.00
2010,08,06,10,38,20.10
2010,08,06,10,39,20.10
2010,08,06,10,40,20.00
2010,08,06,10,41,20.10
2010,08,06,10,42,20.20
2010,08,06,10,43,20.20
2010,08,06,10,44,20.20
2010,08,06,10,45,20.20
2010,08,06,10,46,20.20
2010,08,06,10,47,20.20
2010,08,06,10,48,20.20
2010,08,06,10,49,20.20
2010,08,06,10,50,20.20
2010,08,06,10,51,20.20
2010,08,06,10,52,20.30
2010,08,06,10,53,20.30
2010,08,06,10,54,20.30
2010,08,06,10,55,20.40
2010,08,06,10,56,20.50
2010,08,06,10,57,20.40
2010,08,06,10,58,20.30
2010,08,06,10,59,20.10
2010,08,06,11,00,19.90
2010,08,06,11,01,19.70
2010,08,06,11,02,19.60
2010,08,06,11,03,19.40
2010,08,06,11,04,19.30
2010,08,06,11,05,19.40
2010,08,06,11,06,19.40
2010,08,06,11,07,19.30
2010,08,06,11,08,19.30
2010,08,06,11,09,19.30
2010,08,06,11,10,19.30
2010,08,06,11,11,19.30
2010,08,06,11,12,19.30
2010,08,06,11,13,19.30
2010,08,06,11,14,19.30
2010,08,06,11,15,19.40
2010,08,06,11,16,19.40
2010,08,06,11,17,19.40
2010,08,06,11,18,19.40
2010,08,06,11,19,19.40
2010,08,06,11,20,19.50
2010,08,06,11,21,19.60
2010,08,06,11,22,19.70
2010,08,06,11,23,19.70
2010,08,06,11,24,19.80
2010,08,06,11,25,19.90
2010,08,06,11,26,19.90
2010,08,06,11,27,19.90
2010,08,06,11,28,20.00
2010,08,06,11,29,20.10
2010,08,06,11,30,20.10
2010,08,06,11,31,20.20
2010,08,06,11,32,20.20
2010,08,06,11,33,20.10
2010,08,06,11,34,20.10
2010,08,06,11,35,20.10
2010,08,06,11,36,20.10
2010,08,06,11,37,20.20
2010,08,06,11,38,20.20
2010,08,06,11,39,20.20
2010,08,06,11,40,20.20
2010,08,06,11,41,20.20
2010,08,06,11,42,20.20
2010,08,06,11,43,20.40
2010,08,06,11,44,20.40
2010,08,06,11,45,20.50
2010,08,06,11,46,20.50
2010,08,06,11,47,20.60
2010,08,06,11,48,20.50
2010,08,06,11,49,20.40
2010,08,06,11,50,20.20
2010,08,06,11,51,20.30
2010,08,06,11,52,20.50
2010,08,06,11,53,20.60
2010,08,06,11,54,20.70
2010,08,06,11,55,20.80
2010,08,06,11,56,20.90
2010,08,06,11,57,20.80
2010,08,06,11,58,20.80
2010,08,06,11,59,20.70
2010,08,06,12,00,20.70
2010,08,06,12,01,20.60
2010,08,06,12,02,20.60
2010,08,06,12,03,20.60
2010,08,06,12,04,20.60
2010,08,06,12,05,20.60
2010,08,06,12,06,20.70
2010,08,06,12,07,20.90
2010,08,06,12,08,20.80
2010,08,06,12,09,20.70
2010,08,06,12,10,20.40
2010,08,06,12,11,20.30
2010,08,06,12,12,20.30
2010,08,06,12,13,20.30
2010,08,06,12,14,20.20
2010,08,06,12,15,20.20
2010,08,06,12,16,20.20
2010,08,06,12,17,20.20
2010,08,06,12,18,20.20
2010,08,06,12,19,20.20
2010,08,06,12,20,20.20
2010,08,06,12,21,20.20
2010,08,06,12,22,20.20
2010,08,06,12,23,20.20
2010,08,06,12,24,20.20
2010,08,06,12,25,20.30
2010,08,06,12,26,20.30
2010,08,06,12,27,20.30
2010,08,06,12,28,20.40
2010,08,06,12,29,20.40
2010,08,06,12,30,20.40
2010,08,06,12,31,20.50
2010,08,06,12,32,20.60
2010,08,06,12,33,20.80
2010,08,06,12,34,20.90
2010,08,06,12,35,20.90
2010,08,06,12,36,21.00
2010,08,06,12,37,21.00
2010,08,06,12,38,21.20
2010,08,06,12,39,21.20
2010,08,06,12,40,21.10
2010,08,06,12,41,21.10
2010,08,06,12,42,21.10
2010,08,06,12,43,21.30
2010,08,06,12,44,21.30
2010,08,06,12,45,21.50
2010,08,06,12,46,21.60
2010,08,06,12,47,21.70
2010,08,06,12,48,21.70
2010,08,06,12,49,21.70
2010,08,06,12,50,21.50
2010,08,06,12,51,21.40
2010,08,06,12,52,21.30
2010,08,06,12,53,21.30
2010,08,06,12,54,21.40
2010,08,06,12,55,21.50
2010,08,06,12,56,21.60
2010,08,06,12,57,21.60
2010,08,06,12,58,21.60
2010,08,06,12,59,21.70
2010,08,06,13,00,21.60
2010,08,06,13,01,21.60
2010,08,06,13,02,21.60
2010,08,06,13,03,21.50
2010,08,06,13,04,21.40
2010,08,06,13,05,21.30
2010,08,06,13,06,21.30
2010,08,06,13,07,21.20
2010,08,06,13,08,21.20
2010,08,06,13,09,21.20
2010,08,06,13,10,21.20
2010,08,06,13,11,21.20
2010,08,06,13,12,21.20
2010,08,06,13,13,21.20
2010,08,06,13,14,21.30
2010,08,06,13,15,21.30
2010,08,06,13,16,21.30
2010,08,06,13,17,21.30
2010,08,06,13,18,21.30
2010,08,06,13,19,21.30
2010,08,06,13,20,21.30
2010,08,06,13,21,21.30
2010,08,06,13,22,21.30
2010,08,06,13,23,21.30
2010,08,06,13,24,21.20
2010,08,06,13,25,21.30
2010,08,06,13,26,21.30
2010,08,06,13,27,21.20
2010,08,06,13,28,21.00
2010,08,06,13,29,20.90
2010,08,06,13,30,20.90
2010,08,06,13,31,20.90
2010,08,06,13,32,20.80
2010,08,06,13,33,20.90
2010,08,06,13,34,20.90
2010,08,06,13,35,20.80
2010,08,06,13,36,20.70
2010,08,06,13,37,20.80
2010,08,06,13,38,20.80
2010,08,06,13,39,20.90
2010,08,06,13,40,20.80
2010,08,06,13,41,20.90
2010,08,06,13,42,20.80
2010,08,06,13,43,20.70
2010,08,06,13,44,20.70
2010,08,06,13,45,20.80
2010,08,06,13,46,20.70
2010,08,06,13,47,20.60
2010,08,06,13,48,20.50
2010,08,06,13,49,20.50
2010,08,06,13,50,20.60
2010,08,06,13,51,20.70
2010,08,06,13,52,20.80
2010,08,06,13,53,20.90
2010,08,06,13,54,20.90
2010,08,06,13,55,20.90
2010,08,06,13,56,20.80
2010,08,06,13,57,20.70
2010,08,06,13,58,20.70
2010,08,06,13,59,20.50
2010,08,06,14,00,20.50
2010,08,06,14,01,20.40
2010,08,06,14,02,20.40
2010,08,06,14,03,20.50
2010,08,06,14,04,20.50
2010,08,06,14,05,20.60
2010,08,06,14,06,20.60
2010,08,06,14,07,20.70
2010,08,06,14,08,20.80
2010,08,06,14,09,20.90
2010,08,06,14,10,20.90
2010,08,06,14,11,21.00
2010,08,06,14,12,21.00
2010,08,06,14,13,21.20
2010,08,06,14,14,21.30
2010,08,06,14,15,21.20
2010,08,06,14,16,21.20
2010,08,06,14,17,21.20
2010,08,06,14,18,21.20
2010,08,06,14,19,21.10
2010,08,06,14,20,21.00
2010,08,06,14,21,21.00
2010,08,06,14,22,21.00
2010,08,06,14,23,21.00
2010,08,06,14,24,21.20
2010,08,06,14,25,21.40
2010,08,06,14,26,21.50
2010,08,06,14,27,21.60
2010,08,06,14,28,21.50
2010,08,06,14,29,21.30
2010,08,06,14,30,21.10
2010,08,06,14,31,21.00
2010,08,06,14,32,21.00
2010,08,06,14,33,21.00
2010,08,06,14,34,21.00
2010,08,06,14,35,21.00
2010,08,06,14,36,21.00
2010,08,06,14,37,21.00
2010,08,06,14,38,20.90
2010,08,06,14,39,20.80
2010,08,06,14,40,20.80
2010,08,06,14,41,20.90
2010,08,06,14,42,20.90
2010,08,06,14,43,20.90
2010,08,06,14,44,20.90
2010,08,06,14,45,20.90
2010,08,06,14,46,20.90
2010,08,06,14,47,21.10
2010,08,06,14,48,21.10
2010,08,06,14,49,21.20
2010,08,06,14,50,21.30
2010,08,06,14,51,21.30
2010,08,06,14,52,21.30
2010,08,06,14,53,21.30
2010,08,06,14,54,21.20
2010,08,06,14,55,21.20
2010,08,06,14,56,21.20
2010,08,06,14,57,21.30
2010,08,06,14,58,21.30
2010,08,06,14,59,21.50
2010,08,06,15,00,21.40
2010,08,06,15,01,21.50
2010,08,06,15,02,21.60
2010,08,06,15,03,21.60
2010,08,06,15,04,21.50
2010,08,06,15,05,21.40
2010,08,06,15,06,21.40
2010,08,06,15,07,21.30
2010,08,06,15,08,21.20
2010,08,06,15,09,21.20
2010,08,06,15,10,21.10
2010,08,06,15,11,21.10
2010,08,06,15,12,21.10
2010,08,06,15,13,21.10
2010,08,06,15,14,21.10
2010,08,06,15,15,21.10
2010,08,06,15,16,21.10
2010,08,06,15,17,21.10
2010,08,06,15,18,21.00
2010,08,06,15,19,20.90
2010,08,06,15,20,21.00
2010,08,06,15,21,21.00
2010,08,06,15,22,21.00
2010,08,06,15,23,21.10
2010,08,06,15,24,21.20
2010,08,06,15,25,21.10
2010,08,06,15,26,21.00
2010,08,06,15,27,20.80
2010,08,06,15,28,20.80
2010,08,06,15,29,20.60
2010,08,06,15,30,20.40
2010,08,06,15,31,20.30
2010,08,06,15,32,20.20
2010,08,06,15,33,20.20
2010,08,06,15,34,20.20
2010,08,06,15,35,20.20
2010,08,06,15,36,20.20
2010,08,06,15,37,20.20
2010,08,06,15,38,20.10
2010,08,06,15,39,20.10
2010,08,06,15,40,20.10
2010,08,06,15,41,20.10
2010,08,06,15,42,20.10
2010,08,06,15,43,20.00
2010,08,06,15,44,19.90
2010,08,06,15,45,19.90
2010,08,06,15,46,19.80
2010,08,06,15,47,19.80
2010,08,06,15,48,19.80
2010,08,06,15,49,19.70
2010,08,06,15,50,19.70
2010,08,06,15,51,19.60
2010,08,06,15,52,19.60
2010,08,06,15,53,19.70
2010,08,06,15,54,19.60
2010,08,06,15,55,19.70
2010,08,06,15,56,19.70
2010,08,06,15,57,19.70
2010,08,06,15,58,19.70
2010,08,06,15,59,19.70
2010,08,06,16,00,19.60
2010,08,06,16,01,19.50
2010,08,06,16,02,19.40
2010,08,06,16,03,19.40
2010,08,06,16,04,19.30
2010,08,06,16,05,19.30
2010,08,06,16,06,19.30
2010,08,06,16,07,19.30
2010,08,06,16,08,19.20
2010,08,06,16,09,19.20
2010,08,06,16,10,19.20
2010,08,06,16,11,19.10
2010,08,06,16,12,19.10
2010,08,06,16,13,19.10
2010,08,06,16,14,19.10
2010,08,06,16,15,19.10
2010,08,06,16,16,19.20
2010,08,06,16,17,19.20
2010,08,06,16,18,19.20
2010,08,06,16,19,19.20
2010,08,06,16,20,19.30
2010,08,06,16,21,19.30
2010,08,06,16,22,19.30
2010,08,06,16,23,19.30
2010,08,06,16,24,19.30
2010,08,06,16,25,19.30
2010,08,06,16,26,19.20
2010,08,06,16,27,19.30
2010,08,06,16,28,19.30
2010,08,06,16,29,19.40
2010,08,06,16,30,19.50
2010,08,06,16,31,19.60
2010,08,06,16,32,19.70
2010,08,06,16,33,19.80
2010,08,06,16,34,19.90
2010,08,06,16,35,19.90
2010,08,06,16,36,20.00
2010,08,06,16,37,20.20
2010,08,06,16,38,20.20
2010,08,06,16,39,20.20
2010,08,06,16,40,20.30
2010,08,06,16,41,20.40
2010,08,06,16,42,20.40
2010,08,06,16,43,20.40
2010,08,06,16,44,20.50
2010,08,06,16,45,20.50
2010,08,06,16,46,20.60
2010,08,06,16,47,20.70
2010,08,06,16,48,20.70
2010,08,06,16,49,20.70
2010,08,06,16,50,20.80
2010,08,06,16,51,20.90
2010,08,06,16,52,20.90
2010,08,06,16,53,20.90
2010,08,06,16,54,20.90
2010,08,06,16,55,20.80
2010,08,06,16,56,20.70
2010,08,06,16,57,20.70
2010,08,06,16,58,20.80
2010,08,06,16,59,20.80
2010,08,06,17,00,20.80
2010,08,06,17,01,20.70
2010,08,06,17,02,20.60
2010,08,06,17,03,20.60
2010,08,06,17,04,20.60
2010,08,06,17,05,20.70
2010,08,06,17,06,20.80
2010,08,06,17,07,20.80
2010,08,06,17,08,20.80
2010,08,06,17,09,20.70
2010,08,06,17,10,20.50
2010,08,06,17,11,20.40
2010,08,06,17,12,20.20
2010,08,06,17,13,20.20
2010,08,06,17,14,20.20
2010,08,06,17,15,20.20
2010,08,06,17,16,20.20
2010,08,06,17,17,20.40
2010,08,06,17,18,20.50
2010,08,06,17,19,20.60